Time,TemperatureF,DewpointF,PressureIn,WindDirection,WindDirectionDegrees,WindSpeedMPH,WindSpeedGustMPH,Humidity,HourlyPrecipIn,Conditions,Clouds,dailyrainin,SoftwareType,DateUTC
2013-05-13 00:02:00,21.0,19.0,30.12,SW,221,0.0,0.0,91,0.00,,,0.01,,2013-05-13 05:02:00,
2013-05-13 00:12:00,21.0,19.0,30.12,SW,221,0.0,0.0,91,0.00,,,0.01,,2013-05-13 05:12:00,
2013-05-13 00:21:00,21.0,19.0,30.12,SW,219,0.0,0.0,92,0.00,,,0.01,,2013-05-13 05:21:00,
2013-05-13 00:32:00,21.0,19.0,30.12,SW,219,0.0,0.0,92,0.00,,,0.01,,2013-05-13 05:32:00,
2013-05-13 00:42:00,21.0,19.0,30.12,SW,219,0.0,0.0,92,0.00,,,0.01,,2013-05-13 05:42:00,
2013-05-13 00:52:00,21.0,19.0,30.12,SW,219,0.0,0.0,92,0.00,,,0.01,,2013-05-13 05:52:00,
2013-05-13 01:01:00,21.0,19.0,30.12,SW,219,0.0,0.0,92,0.00,,,0.01,,2013-05-13 06:01:00,
2013-05-13 01:11:00,21.0,19.0,30.12,SW,219,0.0,0.0,92,0.00,,,0.01,,2013-05-13 06:11:00,
2013-05-13 01:21:00,20.0,18.0,30.12,SW,219,0.0,0.0,93,0.00,,,0.01,,2013-05-13 06:21:00,
2013-05-13 01:31:00,20.0,18.0,30.12,SW,219,0.0,0.0,93,0.00,,,0.01,,2013-05-13 06:31:00,
2013-05-13 01:42:00,20.0,18.0,30.12,SW,219,0.0,0.0,93,0.00,,,0.01,,2013-05-13 06:42:00,
2013-05-13 01:52:00,20.0,18.0,30.12,SW,219,0.0,0.0,93,0.00,,,0.01,,2013-05-13 06:52:00,
2013-05-13 02:01:00,20.0,19.0,30.12,SW,219,0.0,0.0,94,0.00,,,0.01,,2013-05-13 07:01:00,
2013-05-13 02:11:00,20.0,19.0,30.12,SW,219,0.0,0.0,94,0.00,,,0.01,,2013-05-13 07:11:00,
2013-05-13 02:22:00,20.0,19.0,30.12,SW,219,0.0,0.0,94,0.00,,,0.01,,2013-05-13 07:22:00,
2013-05-13 02:31:00,19.0,18.0,30.12,SW,219,0.0,0.0,94,0.00,,,0.01,,2013-05-13 07:31:00,
2013-05-13 02:41:00,19.0,18.0,30.12,SW,219,0.0,0.0,94,0.00,,,0.01,,2013-05-13 07:41:00,
2013-05-13 02:52:00,19.0,18.0,30.12,SW,219,0.0,0.0,94,0.00,,,0.01,,2013-05-13 07:52:00,
2013-05-13 03:02:00,19.0,18.0,30.12,SW,219,0.0,0.0,95,0.00,,,0.01,,2013-05-13 08:02:00,
2013-05-13 03:11:00,19.0,18.0,30.12,SW,219,0.0,0.0,95,0.00,,,0.01,,2013-05-13 08:11:00,
2013-05-13 03:21:00,19.0,18.0,30.12,SW,219,0.0,0.0,95,0.00,,,0.01,,2013-05-13 08:21:00,
2013-05-13 03:31:00,19.0,18.0,30.12,SW,219,0.0,0.0,95,0.00,,,0.01,,2013-05-13 08:31:00,
2013-05-13 03:42:00,19.0,18.0,30.12,SW,219,0.0,0.0,95,0.00,,,0.01,,2013-05-13 08:42:00,
2013-05-13 03:51:00,18.0,17.0,30.12,SW,221,0.0,0.0,95,0.00,,,0.01,,2013-05-13 08:51:00,
2013-05-13 04:01:00,18.0,17.0,30.12,SW,219,0.0,0.0,95,0.00,,,0.01,,2013-05-13 09:01:00,
2013-05-13 04:11:00,18.0,17.0,30.12,SW,219,0.0,0.0,95,0.00,,,0.01,,2013-05-13 09:11:00,
2013-05-13 04:21:00,18.0,17.0,30.12,SW,219,0.0,0.0,94,0.00,,,0.01,,2013-05-13 09:21:00,
2013-05-13 04:33:00,18.0,17.0,30.12,SW,221,0.0,0.0,94,0.00,,,0.01,,2013-05-13 09:33:00,
2013-05-13 04:42:00,18.0,17.0,30.12,SW,221,0.0,0.0,94,0.00,,,0.01,,2013-05-13 09:42:00,
2013-05-13 04:52:00,18.0,17.0,30.12,SW,219,0.0,0.0,95,0.00,,,0.01,,2013-05-13 09:52:00,
2013-05-13 05:03:00,18.0,17.0,30.12,SW,219,0.0,0.0,95,0.00,,,0.01,,2013-05-13 10:03:00,
2013-05-13 05:12:00,18.0,17.0,30.12,SW,219,0.0,0.0,95,0.00,,,0.01,,2013-05-13 10:12:00,
2013-05-13 05:22:00,17.0,16.0,30.12,SW,219,0.0,0.0,94,0.00,,,0.01,,2013-05-13 10:22:00,
2013-05-13 05:32:00,18.0,17.0,30.13,SW,221,0.0,0.0,95,0.00,,,0.01,,2013-05-13 10:32:00,
2013-05-13 05:42:00,18.0,17.0,30.13,SW,221,0.0,0.0,95,0.00,,,0.01,,2013-05-13 10:42:00,
2013-05-13 05:52:00,17.0,16.0,30.13,SW,220,0.0,0.0,94,0.00,,,0.01,,2013-05-13 10:52:00,
2013-05-13 06:02:00,18.0,17.0,30.14,SW,221,0.0,0.0,95,0.00,,,0.01,,2013-05-13 11:02:00,
2013-05-13 06:12:00,18.0,17.0,30.14,SW,221,0.0,0.0,95,0.00,,,0.01,,2013-05-13 11:12:00,
2013-05-13 06:21:00,18.0,17.0,30.14,SW,221,0.0,0.0,95,0.00,,,0.01,,2013-05-13 11:21:00,
2013-05-13 06:32:00,19.0,18.0,30.14,SW,219,0.0,0.0,95,0.00,,,0.01,,2013-05-13 11:32:00,
2013-05-13 06:42:00,19.0,18.0,30.14,SW,219,0.0,0.0,95,0.00,,,0.01,,2013-05-13 11:42:00,
2013-05-13 06:52:00,20.0,19.0,30.15,SW,221,0.0,0.0,95,0.00,,,0.01,,2013-05-13 11:52:00,
2013-05-13 07:01:00,22.0,21.0,30.15,SW,221,0.0,0.0,94,0.00,,,0.01,,2013-05-13 12:01:00,
2013-05-13 07:11:00,22.0,21.0,30.15,SW,221,0.0,0.0,94,0.00,,,0.01,,2013-05-13 12:11:00,
2013-05-13 07:21:00,23.0,22.0,30.15,SW,221,0.0,0.0,95,0.00,,,0.01,,2013-05-13 12:21:00,
2013-05-13 07:32:00,26.0,25.0,30.16,SW,221,0.0,0.0,94,0.00,,,0.01,,2013-05-13 12:32:00,
2013-05-13 07:42:00,26.0,25.0,30.16,SW,221,0.0,0.0,94,0.00,,,0.01,,2013-05-13 12:42:00,
2013-05-13 07:51:00,29.0,27.0,30.16,SW,221,0.0,0.0,92,0.00,,,0.01,,2013-05-13 12:51:00,
2013-05-13 08:01:00,32.0,27.0,30.16,NW,321,0.0,1.0,81,0.00,,,0.01,,2013-05-13 13:01:00,
2013-05-13 08:11:00,32.0,27.0,30.16,NW,321,0.0,1.0,81,0.00,,,0.01,,2013-05-13 13:11:00,
2013-05-13 08:21:00,35.0,27.0,30.16,SW,230,0.0,2.0,71,0.00,,,0.01,,2013-05-13 13:21:00,
2013-05-13 08:31:00,39.0,27.0,30.16,SE,142,0.0,2.0,62,0.00,,,0.01,,2013-05-13 13:31:00,
2013-05-13 08:42:00,39.0,27.0,30.16,SE,142,0.0,2.0,62,0.00,,,0.01,,2013-05-13 13:42:00,
2013-05-13 08:52:00,42.0,27.0,30.16,SSW,212,0.0,2.0,54,0.00,,,0.01,,2013-05-13 13:52:00,
2013-05-13 09:02:00,44.0,26.0,30.16,SSW,212,1.0,3.0,48,0.00,,,0.01,,2013-05-13 14:02:00,
2013-05-13 09:11:00,44.0,26.0,30.16,SSW,212,1.0,3.0,48,0.00,,,0.01,,2013-05-13 14:11:00,
2013-05-13 09:22:00,45.0,24.0,30.16,NW,319,0.0,5.0,43,0.00,,,0.01,,2013-05-13 14:22:00,
2013-05-13 09:32:00,46.0,24.0,30.16,SE,128,1.0,4.0,42,0.00,,,0.01,,2013-05-13 14:32:00,
2013-05-13 09:41:00,46.0,24.0,30.16,SE,128,1.0,4.0,42,0.00,,,0.01,,2013-05-13 14:41:00,
2013-05-13 09:51:00,47.0,23.0,30.15,SSE,158,2.0,6.0,38,0.00,,,0.01,,2013-05-13 14:51:00,
2013-05-13 10:01:00,47.0,22.0,30.15,WSW,242,1.0,3.0,37,0.00,,,0.01,,2013-05-13 15:01:00,
2013-05-13 10:11:00,47.0,22.0,30.15,WSW,242,1.0,3.0,37,0.00,,,0.01,,2013-05-13 15:11:00,
2013-05-13 10:21:00,48.0,22.0,30.15,ENE,64,1.0,4.0,35,0.00,,,0.01,,2013-05-13 15:21:00,
2013-05-13 10:31:00,49.0,21.0,30.15,West,260,1.0,4.0,33,0.00,,,0.01,,2013-05-13 15:31:00,
2013-05-13 10:42:00,49.0,21.0,30.15,West,260,1.0,4.0,33,0.00,,,0.01,,2013-05-13 15:42:00,
2013-05-13 10:53:00,49.0,21.0,30.15,SE,128,1.0,4.0,33,0.00,,,0.01,,2013-05-13 15:53:00,
2013-05-13 11:03:00,50.0,23.0,30.14,SW,232,1.0,5.0,35,0.00,,,0.01,,2013-05-13 16:03:00,
2013-05-13 11:12:00,50.0,23.0,30.14,SW,232,1.0,5.0,35,0.00,,,0.01,,2013-05-13 16:12:00,
2013-05-13 11:21:00,50.0,23.0,30.14,SSE,148,0.0,3.0,34,0.00,,,0.01,,2013-05-13 16:21:00,
2013-05-13 11:33:00,51.0,22.0,30.13,SSW,204,0.0,5.0,32,0.00,,,0.01,,2013-05-13 16:33:00,
2013-05-13 11:42:00,51.0,24.0,30.12,SSW,193,0.0,6.0,34,0.00,,,0.01,,2013-05-13 16:42:00,
2013-05-13 11:52:00,51.0,24.0,30.12,SSW,193,0.0,6.0,34,0.00,,,0.01,,2013-05-13 16:52:00,
2013-05-13 12:02:00,52.0,22.0,30.12,South,179,0.0,3.0,31,0.00,,,0.01,,2013-05-13 17:02:00,
2013-05-13 12:12:00,52.0,22.0,30.12,South,179,0.0,3.0,31,0.00,,,0.01,,2013-05-13 17:12:00,
2013-05-13 12:21:00,53.0,21.0,30.11,SSW,205,0.0,8.0,28,0.00,,,0.01,,2013-05-13 17:21:00,
2013-05-13 12:32:00,54.0,26.0,30.11,WSW,256,1.0,5.0,33,0.00,,,0.01,,2013-05-13 17:32:00,
2013-05-13 12:42:00,54.0,26.0,30.11,WSW,256,1.0,5.0,33,0.00,,,0.01,,2013-05-13 17:42:00,
2013-05-13 12:54:00,54.0,22.0,30.10,North,356,1.0,6.0,28,0.00,,,0.01,,2013-05-13 17:54:00,
2013-05-13 13:03:00,54.0,21.0,30.09,SW,222,1.0,6.0,27,0.00,,,0.01,,2013-05-13 18:03:00,
2013-05-13 13:12:00,54.0,21.0,30.09,SW,222,1.0,6.0,27,0.00,,,0.01,,2013-05-13 18:12:00,
2013-05-13 13:23:00,55.0,21.0,30.08,NW,312,1.0,6.0,26,0.00,,,0.01,,2013-05-13 18:23:00,
2013-05-13 13:32:00,56.0,22.0,30.07,NNW,327,2.0,5.0,26,0.00,,,0.01,,2013-05-13 18:32:00,
2013-05-13 13:42:00,56.0,19.0,30.06,NW,307,2.0,6.0,23,0.00,,,0.01,,2013-05-13 18:42:00,
2013-05-13 13:51:00,56.0,19.0,30.06,NW,307,2.0,6.0,23,0.00,,,0.01,,2013-05-13 18:51:00,
2013-05-13 14:01:00,57.0,22.0,30.05,WNW,284,0.0,2.0,26,0.00,,,0.01,,2013-05-13 19:01:00,
2013-05-13 14:11:00,57.0,22.0,30.05,WNW,284,0.0,2.0,26,0.00,,,0.01,,2013-05-13 19:11:00,
2013-05-13 14:21:00,57.0,22.0,30.06,NNW,338,2.0,8.0,26,0.00,,,0.01,,2013-05-13 19:21:00,
2013-05-13 14:32:00,57.0,22.0,30.05,SSE,166,1.0,6.0,25,0.00,,,0.01,,2013-05-13 19:32:00,
2013-05-13 14:44:00,57.0,22.0,30.05,SSE,166,1.0,6.0,25,0.00,,,0.01,,2013-05-13 19:44:00,
2013-05-13 14:53:00,58.0,19.0,30.04,WSW,253,3.0,6.0,22,0.00,,,0.00,,2013-05-13 19:53:00,
2013-05-13 15:02:00,58.0,20.0,30.03,ENE,77,1.0,5.0,23,0.00,,,0.00,,2013-05-13 20:02:00,
2013-05-13 15:11:00,58.0,20.0,30.03,ENE,77,1.0,5.0,23,0.00,,,0.00,,2013-05-13 20:11:00,
2013-05-13 15:23:00,59.0,21.0,30.02,WSW,253,1.0,4.0,23,0.00,,,0.00,,2013-05-13 20:23:00,
2013-05-13 15:33:00,59.0,23.0,30.01,NNW,342,1.0,4.0,25,0.00,,,0.00,,2013-05-13 20:33:00,
2013-05-13 15:44:00,59.0,23.0,30.01,NNW,342,1.0,4.0,25,0.00,,,0.00,,2013-05-13 20:44:00,
2013-05-13 15:53:00,58.0,20.0,30.01,WNW,287,2.0,7.0,23,0.00,,,0.00,,2013-05-13 20:53:00,
2013-05-13 16:03:00,58.0,23.0,30.00,ENE,70,0.0,6.0,26,0.00,,,0.00,,2013-05-13 21:03:00,
2013-05-13 16:14:00,58.0,23.0,30.00,ENE,70,0.0,6.0,26,0.00,,,0.00,,2013-05-13 21:14:00,
2013-05-13 16:23:00,59.0,21.0,30.00,NNW,339,1.0,4.0,23,0.00,,,0.00,,2013-05-13 21:23:00,
2013-05-13 16:33:00,58.0,21.0,30.00,NNW,333,1.0,5.0,24,0.00,,,0.00,,2013-05-13 21:33:00,
2013-05-13 16:43:00,58.0,21.0,30.00,NNW,333,1.0,5.0,24,0.00,,,0.00,,2013-05-13 21:43:00,
2013-05-13 16:53:00,58.0,19.0,29.99,SSE,167,2.0,7.0,22,0.00,,,0.00,,2013-05-13 21:53:00,
2013-05-13 17:02:00,58.0,20.0,29.99,East,99,0.0,4.0,23,0.00,,,0.00,,2013-05-13 22:02:00,
2013-05-13 17:12:00,58.0,20.0,29.99,East,99,0.0,4.0,23,0.00,,,0.00,,2013-05-13 22:12:00,
2013-05-13 17:23:00,58.0,19.0,29.99,West,266,0.0,3.0,22,0.00,,,0.00,,2013-05-13 22:23:00,
2013-05-13 17:32:00,57.0,19.0,29.98,East,84,0.0,3.0,22,0.00,,,0.00,,2013-05-13 22:32:00,
2013-05-13 17:43:00,57.0,21.0,29.97,SE,145,0.0,4.0,24,0.00,,,0.00,,2013-05-13 22:43:00,
2013-05-13 17:52:00,57.0,21.0,29.97,SE,145,0.0,4.0,24,0.00,,,0.00,,2013-05-13 22:52:00,
2013-05-13 18:02:00,57.0,21.0,29.97,West,281,0.0,4.0,24,0.00,,,0.00,,2013-05-13 23:02:00,
2013-05-13 18:12:00,57.0,21.0,29.97,West,281,0.0,4.0,24,0.00,,,0.00,,2013-05-13 23:12:00,
2013-05-13 18:23:00,57.0,21.0,29.96,North,351,1.0,6.0,24,0.00,,,0.00,,2013-05-13 23:23:00,
2013-05-13 18:33:00,56.0,20.0,29.96,NW,316,0.0,4.0,24,0.00,,,0.00,,2013-05-13 23:33:00,
2013-05-13 18:42:00,56.0,20.0,29.96,NW,316,0.0,4.0,24,0.00,,,0.00,,2013-05-13 23:42:00,
2013-05-13 18:53:00,55.0,20.0,29.96,WSW,253,1.0,5.0,25,0.00,,,0.00,,2013-05-13 23:53:00,
2013-05-13 19:02:00,55.0,23.0,29.94,SSW,210,0.0,4.0,28,0.00,,,0.00,,2013-05-14 00:02:00,
2013-05-13 19:12:00,55.0,23.0,29.94,SSW,210,0.0,4.0,28,0.00,,,0.00,,2013-05-14 00:12:00,
2013-05-13 19:22:00,55.0,23.0,29.93,East,91,0.0,4.0,28,0.00,,,0.00,,2013-05-14 00:22:00,
2013-05-13 19:31:00,54.0,22.0,29.94,NNW,342,0.0,4.0,29,0.00,,,0.00,,2013-05-14 00:31:00,
2013-05-13 19:41:00,54.0,22.0,29.94,NNW,342,0.0,4.0,29,0.00,,,0.00,,2013-05-14 00:41:00,
2013-05-13 19:51:00,54.0,23.0,29.94,SSE,155,0.0,3.0,30,0.00,,,0.00,,2013-05-14 00:51:00,
2013-05-13 20:01:00,53.0,26.0,29.94,SSE,159,0.0,6.0,35,0.00,,,0.00,,2013-05-14 01:01:00,
2013-05-13 20:11:00,53.0,26.0,29.94,SSE,159,0.0,6.0,35,0.00,,,0.00,,2013-05-14 01:11:00,
2013-05-13 20:21:00,52.0,28.0,29.94,SSW,201,0.0,5.0,39,0.00,,,0.00,,2013-05-14 01:21:00,
2013-05-13 20:32:00,50.0,28.0,29.94,NE,55,1.0,5.0,42,0.00,,,0.00,,2013-05-14 01:32:00,
2013-05-13 20:43:00,50.0,28.0,29.94,NE,55,1.0,5.0,42,0.00,,,0.00,,2013-05-14 01:43:00,
2013-05-13 20:52:00,49.0,29.0,29.95,NW,322,2.0,7.0,46,0.00,,,0.00,,2013-05-14 01:52:00,
2013-05-13 21:02:00,49.0,31.0,29.95,NE,44,0.0,3.0,49,0.00,,,0.00,,2013-05-14 02:02:00,
2013-05-13 21:11:00,49.0,31.0,29.95,NE,44,0.0,3.0,49,0.00,,,0.00,,2013-05-14 02:11:00,
2013-05-13 21:22:00,48.0,31.0,29.95,NE,36,2.0,8.0,52,0.00,,,0.00,,2013-05-14 02:22:00,
2013-05-13 21:32:00,47.0,31.0,29.94,NE,39,0.0,3.0,54,0.00,,,0.00,,2013-05-14 02:32:00,
2013-05-13 21:42:00,47.0,31.0,29.94,NE,39,0.0,3.0,54,0.00,,,0.00,,2013-05-14 02:42:00,
2013-05-13 21:52:00,47.0,32.0,29.93,SSE,167,2.0,7.0,56,0.00,,,0.00,,2013-05-14 02:52:00,
2013-05-13 22:01:00,46.0,32.0,29.93,NNE,28,2.0,7.0,58,0.00,,,0.00,,2013-05-14 03:01:00,
2013-05-13 22:11:00,46.0,32.0,29.93,NNE,28,2.0,7.0,58,0.00,,,0.00,,2013-05-14 03:11:00,
2013-05-13 22:21:00,45.0,33.0,29.92,ENE,73,2.0,7.0,62,0.00,,,0.00,,2013-05-14 03:21:00,
2013-05-13 22:33:00,44.0,34.0,29.92,NE,39,0.0,3.0,69,0.00,,,0.00,,2013-05-14 03:33:00,
2013-05-13 22:42:00,44.0,34.0,29.92,NE,39,0.0,3.0,69,0.00,,,0.00,,2013-05-14 03:42:00,
2013-05-13 22:52:00,43.0,36.0,29.91,ENE,63,0.0,4.0,75,0.00,,,0.00,,2013-05-14 03:52:00,
2013-05-13 23:02:00,42.0,36.0,29.91,North,5,0.0,3.0,78,0.00,,,0.00,,2013-05-14 04:02:00,
2013-05-13 23:13:00,42.0,36.0,29.91,North,5,0.0,3.0,78,0.00,,,0.00,,2013-05-14 04:13:00,
2013-05-13 23:23:00,42.0,35.0,29.90,NE,55,0.0,3.0,76,0.00,,,0.00,,2013-05-14 04:23:00,
2013-05-13 23:32:00,42.0,34.0,29.89,NNE,12,2.0,8.0,74,0.00,,,0.00,,2013-05-14 04:32:00,
2013-05-13 23:43:00,42.0,34.0,29.89,NNE,12,2.0,8.0,74,0.00,,,0.00,,2013-05-14 04:43:00,
2013-05-13 23:52:00,42.0,34.0,29.89,SSE,162,0.0,3.0,73,0.00,,,0.00,,2013-05-14 04:52:00,